EW3000 Weather Reports


Display with metric or nautical units.
time (UTC)temp
F
wind
direction
speed
MPH
gust
MPH
rain 1hr
in
rain 24hr
in
rain mn
in
humidity
%
barometer
mb
20260905225916 80 0.0 0.0 0.00 0.00 0.00 55 1012.4
20260905225340 80 0.0 0.0 0.00 0.00 0.00 54 1012.4
20260905224910 81 0.0 0.0 0.00 0.00 0.00 53 1012.4
20260905224353 81 0.0 0.0 0.00 0.00 0.00 52 1012.3
20260905223839 82 0.0 0.0 0.00 0.00 0.00 52 1012.3
20260905223347 82 0.0 0.0 0.00 0.00 0.00 51 1012.4
20260905222849 83 0.0 0.0 0.00 0.00 0.00 50 1012.4
20260905222353 83 0.0 0.0 0.00 0.00 0.00 48 1012.4
20260905221859 84 0.0 0.0 0.00 0.00 0.00 48 1012.3
20260905221345 84 0.0 0.0 0.00 0.00 0.00 48 1012.2
20260905220849 85 0.0 0.0 0.00 0.00 0.00 47 1012.2
20260905220355 85 0.0 0.0 0.00 0.00 0.00 46 1012.2
20260905215852 86 0.0 0.0 0.00 0.00 0.00 45 1012.2
20260905215357 86 0.0 0.0 0.00 0.00 0.00 44 1012.1
20260905214843 86 0.0 0.0 0.00 0.00 0.00 45 1012.1
20260905214413 86 0.0 0.0 0.00 0.00 0.00 44 1012.1
20260905213858 86 0.0 0.0 0.00 0.00 0.00 46 1012.0
20260905213402 86 0.0 0.0 0.00 0.00 0.00 47 1012.0
20260905212844 86 0.0 0.0 0.00 0.00 0.00 47 1012.1
20260905212413 86 0.0 0.0 0.00 0.00 0.00 46 1012.1
20260905211859 86 0.0 0.0 0.00 0.00 0.00 46 1012.1
20260905211346 86 0.0 0.0 0.00 0.00 0.00 48 1012.1
20260905210853 86 0.0 0.0 0.00 0.00 0.00 48 1012.1
20260905210421 86 0.0 0.0 0.00 0.00 0.00 46 1012.0
20260905205904 86 0.0 0.0 0.00 0.00 0.00 46 1012.0
20260905205349 86 0.0 0.0 0.00 0.00 0.00 47 1012.1
20260905204856 86 0.0 0.0 0.00 0.00 0.00 46 1012.1
20260905204420 86 0.0 0.0 0.00 0.00 0.00 50 1012.1
20260905203844 86 0.0 0.0 0.00 0.00 0.00 49 1012.1
20260905203410 86 0.0 0.0 0.00 0.00 0.00 48 1012.1
20260905202850 87 0.0 0.0 0.00 0.00 0.00 47 1012.1
20260905202353 87 0.0 0.0 0.00 0.00 0.00 46 1012.2
20260905201854 87 0.0 0.0 0.00 0.00 0.00 45 1012.1
20260905201341 88 0.0 0.0 0.00 0.00 0.00 45 1012.2
20260905200847 88 0.0 0.0 0.00 0.00 0.00 46 1012.1
20260905200352 88 0.0 0.0 0.00 0.00 0.00 45 1012.2
20260905195853 88 0.0 0.0 0.00 0.00 0.00 45 1012.2
20260905195341 88 0.0 0.0 0.00 0.00 0.00 47 1012.2
20260905194851 88 0.0 0.0 0.00 0.00 0.00 48 1012.2
20260905194339 88 0.0 0.0 0.00 0.00 0.00 48 1012.1
20260905193851 87 0.0 0.0 0.00 0.00 0.00 49 1012.1
20260905193402 87 0.0 0.0 0.00 0.00 0.00 49 1012.2
20260905192846 87 0.0 0.0 0.00 0.00 0.00 50 1012.2
20260905192356 86 0.0 0.0 0.00 0.00 0.00 50 1012.3
20260905191905 86 0.0 0.0 0.00 0.00 0.00 50 1012.3
20260905191355 86 0.0 0.0 0.00 0.00 0.00 52 1012.4
20260905190843 85 0.0 0.0 0.00 0.00 0.00 53 1012.3
20260905190349 85 0.0 0.0 0.00 0.00 0.00 51 1012.3
20260905185856 85 0.0 0.0 0.00 0.00 0.00 54 1012.4
20260905185346 85 0.0 0.0 0.00 0.00 0.00 54 1012.5
20260905184853 85 0.0 0.0 0.00 0.00 0.00 53 1012.5
20260905184359 85 0.0 0.0 0.00 0.00 0.00 52 1012.6
20260905183844 85 0.0 0.0 0.00 0.00 0.00 53 1012.6
20260905183349 85 0.0 0.0 0.00 0.00 0.00 52 1012.5
20260905182913 85 0.0 0.0 0.00 0.00 0.00 53 1012.6
20260905182338 85 0.0 0.0 0.00 0.00 0.00 53 1012.6
20260905181908 85 0.0 0.0 0.00 0.00 0.00 54 1012.7
20260905181355 85 0.0 0.0 0.00 0.00 0.00 54 1012.6
20260905180842 85 0.0 0.0 0.00 0.00 0.00 54 1012.6
20260905180353 85 0.0 0.0 0.00 0.00 0.00 54 1012.7
20260905175843 84 0.0 0.0 0.00 0.00 0.00 57 1012.7
20260905175356 83 0.0 0.0 0.00 0.00 0.00 57 1012.7
20260905174844 83 0.0 0.0 0.00 0.00 0.00 59 1012.7
20260905174353 83 0.0 0.0 0.00 0.00 0.00 56 1012.7
20260905173906 82 0.0 0.0 0.00 0.00 0.00 60 1012.8
20260905173358 82 0.0 0.0 0.00 0.00 0.00 60 1012.8
20260905172844 81 0.0 0.0 0.00 0.00 0.00 61 1012.9
20260905172338 81 0.0 0.0 0.00 0.00 0.00 59 1012.9
20260905171847 81 0.0 0.0 0.00 0.00 0.00 62 1013.0
20260905171354 80 0.0 0.0 0.00 0.00 0.00 62 1013.0
20260905170900 80 0.0 0.0 0.00 0.00 0.00 61 1013.1
20260905170346 79 0.0 0.0 0.00 0.00 0.00 60 1013.1
20260905165850 79 0.0 0.0 0.00 0.00 0.00 63 1013.2
20260905165355 78 0.0 0.0 0.00 0.00 0.00 64 1013.2
20260905164844 78 0.0 0.0 0.00 0.00 0.00 66 1013.2
20260905164352 78 0.0 0.0 0.00 0.00 0.00 64 1013.3
20260905163859 77 0.0 0.0 0.00 0.00 0.00 64 1013.4
20260905163425 77 0.0 0.0 0.00 0.00 0.00 66 1013.3
20260905162847 77 0.0 0.0 0.00 0.00 0.00 66 1013.4
20260905162356 77 0.0 0.0 0.00 0.00 0.00 65 1013.6
20260905161900 77 0.0 0.0 0.00 0.00 0.00 67 1013.6
20260905161347 76 0.0 0.0 0.00 0.00 0.00 67 1013.7
20260905160913 76 0.0 0.0 0.00 0.00 0.00 67 1013.7
20260905160345 76 0.0 0.0 0.00 0.00 0.00 69 1013.8
20260905155852 76 0.0 0.0 0.00 0.00 0.00 68 1013.7
20260905155418 76 0.0 0.0 0.00 0.00 0.00 67 1013.9
20260905154844 76 0.0 0.0 0.00 0.00 0.00 68 1013.9
20260905154350 76 0.0 0.0 0.00 0.00 0.00 69 1013.9
20260905153836 76 0.0 0.0 0.00 0.00 0.00 68 1013.9
20260905153347 76 0.0 0.0 0.00 0.00 0.00 70 1013.9
20260905152852 76 0.0 0.0 0.00 0.00 0.00 71 1013.9
20260905152342 76 0.0 0.0 0.00 0.00 0.00 71 1014.0
20260905151852 76 0.0 0.0 0.00 0.00 0.00 73 1014.0
20260905151342 75 0.0 0.0 0.00 0.00 0.00 73 1014.0
20260905150855 75 0.0 0.0 0.00 0.00 0.00 73 1014.0
20260905150346 75 0.0 0.0 0.00 0.00 0.00 73 1013.9
20260905145855 75 0.0 0.0 0.00 0.00 0.00 72 1013.9
20260905145347 75 0.0 0.0 0.00 0.00 0.00 73 1013.9
20260905144855 75 0.0 0.0 0.00 0.00 0.00 73 1013.8
20260905144404 74 0.0 0.0 0.00 0.00 0.00 74 1013.7
20260905143851 74 0.0 0.0 0.00 0.00 0.00 76 1013.8
20260905143359 74 0.0 0.0 0.00 0.00 0.00 77 1013.7
20260905142846 74 0.0 0.0 0.00 0.00 0.00 78 1013.6
20260905142354 73 0.0 0.0 0.00 0.00 0.00 78 1013.6
20260905141859 73 0.0 0.0 0.00 0.00 0.00 78 1013.5
20260905141347 73 0.0 0.0 0.00 0.00 0.00 77 1013.4
20260905140855 73 0.0 0.0 0.00 0.00 0.00 76 1013.5
20260905140346 73 0.0 0.0 0.00 0.00 0.00 77 1013.5
20260905135850 73 0.0 0.0 0.00 0.00 0.00 77 1013.7
20260905135343 72 0.0 0.0 0.00 0.00 0.00 77 1013.8
20260905134840 72 0.0 0.0 0.00 0.00 0.00 80 1013.8
20260905134349 72 0.0 0.0 0.00 0.00 0.00 81 1013.8
20260905133855 72 0.0 0.0 0.00 0.00 0.00 80 1013.8
20260905133406 72 0.0 0.0 0.00 0.00 0.00 81 1013.8
20260905132846 72 0.0 0.0 0.00 0.00 0.00 81 1013.8
20260905132353 72 0.0 0.0 0.00 0.00 0.00 82 1013.8
20260905131840 72 0.0 0.0 0.00 0.00 0.00 81 1013.7
20260905131348 72 0.0 0.0 0.00 0.00 0.00 80 1013.6
20260905130853 72 0.0 0.0 0.00 0.00 0.00 80 1013.6
20260905130403 72 0.0 0.0 0.00 0.00 0.00 82 1013.5
20260905125845 72 0.0 0.0 0.00 0.00 0.00 82 1013.4
20260905125354 71 0.0 0.0 0.00 0.00 0.00 80 1013.3
20260905124858 71 0.0 0.0 0.00 0.00 0.00 81 1013.4
20260905124346 71 0.0 0.0 0.00 0.00 0.00 82 1013.4
20260905123853 71 0.0 0.0 0.00 0.00 0.00 84 1013.3
20260905123340 71 0.0 0.0 0.00 0.00 0.00 83 1013.4
20260905122850 71 0.0 0.0 0.00 0.00 0.00 84 1013.4
20260905122338 71 0.0 0.0 0.00 0.00 0.00 84 1013.4
20260905121909 71 0.0 0.0 0.00 0.00 0.00 86 1013.5
20260905121338 71 0.0 0.0 0.00 0.00 0.00 88 1013.4
20260905120847 71 0.0 0.0 0.00 0.00 0.00 88 1013.5
20260905120354 71 0.0 0.0 0.00 0.00 0.00 87 1013.4
20260905115900 71 0.0 0.0 0.00 0.00 0.00 87 1013.4
20260905115349 71 0.0 0.0 0.00 0.00 0.00 87 1013.2
20260905114837 71 0.0 0.0 0.00 0.00 0.00 87 1013.2
20260905114350 71 0.0 0.0 0.00 0.00 0.00 87 1013.2
20260905113841 71 0.0 0.0 0.00 0.00 0.00 87 1013.3
20260905113346 71 0.0 0.0 0.00 0.00 0.00 87 1013.2
20260905112855 71 0.0 0.0 0.00 0.00 0.00 87 1013.1
20260905112403 71 0.0 0.0 0.00 0.00 0.00 87 1013.0
20260905111852 71 0.0 0.0 0.00 0.00 0.00 87 1013.0
20260905111358 71 0.0 0.0 0.00 0.00 0.00 87 1013.1
20260905110847 71 0.0 0.0 0.00 0.00 0.00 88 1013.1
20260905110357 71 0.0 0.0 0.00 0.00 0.00 88 1012.9
20260905105839 71 0.0 0.0 0.00 0.00 0.00 88 1012.8
20260905105345 71 0.0 0.0 0.00 0.00 0.00 89 1012.8
20260905104855 71 0.0 0.0 0.00 0.00 0.00 89 1012.6
20260905104343 71 0.0 0.0 0.00 0.00 0.00 90 1012.5
20260905103852 71 0.0 0.0 0.00 0.00 0.00 90 1012.7
20260905103359 71 0.0 0.0 0.00 0.00 0.00 91 1012.7
20260905102844 71 0.0 0.0 0.00 0.00 0.00 91 1012.7
20260905102353 71 0.0 0.0 0.00 0.00 0.00 91 1012.5
20260905101842 71 0.0 0.0 0.00 0.00 0.00 92 1012.5
20260905101352 71 0.0 0.0 0.00 0.00 0.00 92 1012.3
20260905100846 71 0.0 0.0 0.00 0.00 0.00 92 1012.3
20260905100352 71 0.0 0.0 0.00 0.00 0.00 92 1012.2
20260905095854 71 0.0 0.0 0.00 0.00 0.00 93 1012.1
20260905095356 71 0.0 0.0 0.00 0.00 0.00 93 1012.1
20260905094847 71 0.0 0.0 0.00 0.00 0.00 92 1012.0
20260905094415 71 0.0 0.0 0.00 0.00 0.00 92 1012.2
20260905093900 71 0.0 0.0 0.00 0.00 0.00 92 1012.1
20260905093347 71 0.0 0.0 0.00 0.00 0.00 92 1012.0
20260905092911 71 0.0 0.0 0.00 0.00 0.00 92 1012.0
20260905092356 71 0.0 0.0 0.00 0.00 0.00 92 1012.1
20260905091839 71 0.0 0.0 0.00 0.00 0.00 92 1012.1
20260905091345 71 0.0 0.0 0.00 0.00 0.00 92 1012.0
20260905090911 72 0.0 0.0 0.00 0.00 0.00 92 1012.1
20260905090356 72 0.0 0.0 0.00 0.00 0.00 92 1012.1
20260905085903 72 0.0 0.0 0.00 0.00 0.00 92 1012.1
20260905085345 72 0.0 0.0 0.00 0.00 0.00 92 1012.1
20260905084912 72 0.0 0.0 0.00 0.00 0.00 92 1012.0
20260905084356 72 0.0 0.0 0.00 0.00 0.00 92 1012.0
20260905083842 72 0.0 0.0 0.00 0.00 0.00 92 1012.0
20260905083348 72 0.0 0.0 0.00 0.00 0.00 92 1011.9
20260905082852 72 0.0 0.0 0.00 0.00 0.00 92 1012.1
20260905082420 72 0.0 0.0 0.00 0.00 0.00 92 1012.1
20260905081845 72 0.0 0.0 0.00 0.00 0.00 92 1012.1
20260905081350 72 0.0 0.0 0.00 0.00 0.00 92 1012.2
20260905080856 72 0.0 0.0 0.00 0.00 0.00 92 1012.2
20260905080403 72 0.0 0.0 0.00 0.00 0.00 92 1012.2
20260905075847 72 0.0 0.0 0.00 0.00 0.00 92 1012.2
20260905075355 72 0.0 0.0 0.00 0.00 0.00 92 1012.2
20260905074859 72 0.0 0.0 0.00 0.00 0.00 92 1012.1
20260905074346 72 0.0 0.0 0.00 0.00 0.00 91 1012.1
20260905073854 72 0.0 0.0 0.00 0.00 0.00 91 1012.1
20260905073342 72 0.0 0.0 0.00 0.00 0.00 92 1012.2
20260905072851 72 0.0 0.0 0.00 0.00 0.00 92 1012.2
20260905072400 72 0.0 0.0 0.00 0.00 0.00 91 1012.1
20260905071848 72 0.0 0.0 0.00 0.00 0.00 91 1012.1
20260905071356 72 0.0 0.0 0.00 0.00 0.00 91 1012.1
20260905070906 73 0.0 0.0 0.00 0.00 0.00 91 1012.2
20260905070354 73 0.0 0.0 0.00 0.00 0.00 91 1012.2
20260905065921 73 0.0 0.0 0.00 0.00 0.00 91 1012.2
20260905065407 73 0.0 0.0 0.00 0.00 0.00 91 1012.3
20260905064851 73 0.0 0.0 0.00 0.00 0.00 91 1012.3
20260905064337 73 0.0 0.0 0.00 0.00 0.00 91 1012.3
20260905063848 73 0.0 0.0 0.00 0.00 0.00 91 1012.3
20260905063356 73 0.0 0.0 0.00 0.00 0.00 90 1012.4
20260905062843 73 0.0 0.0 0.00 0.00 0.00 91 1012.4
20260905062350 73 0.0 0.0 0.00 0.00 0.00 90 1012.4
20260905061839 73 0.0 0.0 0.00 0.00 0.00 90 1012.4
20260905061349 73 0.0 0.0 0.00 0.00 0.00 91 1012.5
20260905060920 73 0.0 0.0 0.00 0.00 0.00 90 1012.5
20260905060346 73 0.0 0.0 0.00 0.00 0.00 90 1012.5
20260905055848 73 0.0 0.0 0.00 0.00 0.00 90 1012.5
20260905055357 73 0.0 0.0 0.00 0.00 0.00 90 1012.5
20260905054905 73 0.0 0.0 0.00 0.00 0.00 90 1012.6
20260905054354 73 0.0 0.0 0.00 0.00 0.00 91 1012.6
20260905053845 73 0.0 0.0 0.00 0.00 0.00 90 1012.7
20260905053356 73 0.0 0.0 0.00 0.00 0.00 90 1012.7
20260905052839 73 0.0 0.0 0.00 0.00 0.00 90 1012.8
20260905052410 73 0.0 0.0 0.00 0.00 0.00 90 1012.8
20260905051857 73 0.0 0.0 0.00 0.00 0.00 90 1012.8
20260905051345 73 0.0 0.0 0.00 0.00 0.00 90 1012.9
20260905050853 0 0.0 0.0 0.00 0.00 0.00 1012.8
20260905050424 0 0.0 0.0 0.00 0.00 0.00 1012.8
20260905045848 0 0.0 0.0 0.00 0.00 0.00 1012.8
20260905045358 0 0.0 0.0 0.00 0.00 0.00 1012.8
20260905044908 0 0.0 0.0 0.00 0.00 0.00 1012.8
20260905044358 0 0.0 0.0 0.00 0.00 0.00 1012.8
20260905043849 0 0.0 0.0 0.00 0.00 0.00 1012.8
20260905043340 0 0.0 0.0 0.00 0.00 0.00 1012.9
20260905042849 0 0.0 0.0 0.00 0.00 0.00 1012.9
20260905042342 0 0.0 0.0 0.00 0.00 0.00 1013.0
20260905041853 0 0.0 0.0 0.00 0.00 0.00 1013.0
20260905041345 0 0.0 0.0 0.00 0.00 0.00 1013.1
20260905040853 0 0.0 0.0 0.00 0.00 0.00 1013.2
20260905040346 0 0.0 0.0 0.00 0.00 0.00 1013.2
20260905035853 0 0.0 0.0 0.00 0.00 0.00 1013.3
20260905035347 0 0.0 0.0 0.00 0.00 0.00 1013.2
20260905034911 0 0.0 0.0 0.00 0.00 0.00 1013.2
20260905034347 0 0.0 0.0 0.00 0.00 0.00 1013.1
20260905033837 0 0.0 0.0 0.00 0.00 0.00 1013.1
20260905033350 0 0.0 0.0 0.00 0.00 0.00 1013.2
20260905032917 0 0.0 0.0 0.00 0.00 0.00 1013.2
20260905032346 0 0.0 0.0 0.00 0.00 0.00 1013.1
20260905031855 0 0.0 0.0 0.00 0.00 0.00 1013.1
20260905031405 0 0.0 0.0 0.00 0.00 0.00 1013.2
20260905030854 0 0.0 0.0 0.00 0.00 0.00 1013.2
20260905030404 0 0.0 0.0 0.00 0.00 0.00 1013.1
20260905025847 0 0.0 0.0 0.00 0.01 0.00 1013.1
20260905025413 0 0.0 0.0 0.00 0.01 0.00 1012.9
20260905024859 0 0.0 0.0 0.00 0.01 0.00 1012.9
20260905024346 0 0.0 0.0 0.00 0.01 0.00 1012.9
20260905023851 0 0.0 0.0 0.00 0.01 0.00 1012.9
20260905023341 0 0.0 0.0 0.00 0.01 0.00 1012.9
20260905022848 0 0.0 0.0 0.00 0.01 0.00 1012.9
20260905022416 0 0.0 0.0 0.00 0.01 0.00 1012.8
20260905021846 0 0.0 0.0 0.00 0.01 0.00 1012.8
20260905021353 0 0.0 0.0 0.00 0.01 0.00 1012.7
20260905020903 0 0.0 0.0 0.00 0.01 0.00 1012.7
20260905020351 0 0.0 0.0 0.00 0.01 0.00 1012.8
20260905015855 0 0.0 0.0 0.00 0.01 0.00 1012.7
20260905015346 0 0.0 0.0 0.00 0.01 0.00 1012.6
20260905014857 0 0.0 0.0 0.00 0.01 0.00 1012.6
20260905014406 0 0.0 0.0 0.00 0.01 0.00 1012.6
20260905013917 0 0.0 0.0 0.00 0.01 0.00 1012.5
20260905013344 0 0.0 0.0 0.00 0.01 0.00 1012.6
20260905012852 0 0.0 0.0 0.00 0.01 0.00 1012.6
20260905012343 0 0.0 0.0 0.00 0.01 0.00 1012.6
20260905011836 0 0.0 0.0 0.00 0.01 0.00 1012.7
20260905011348 0 0.0 0.0 0.00 0.01 0.00 1012.6
20260905010839 0 0.0 0.0 0.00 0.01 0.00 1012.7
20260905010348 0 0.0 0.0 0.00 0.01 0.00 1012.6
20260905005854 0 0.0 0.0 0.00 0.01 0.00 1012.6
20260905005344 0 0.0 0.0 0.00 0.01 0.00 1012.7
20260905004854 0 0.0 0.0 0.00 0.01 0.00 1012.6
20260905004345 0 0.0 0.0 0.00 0.01 0.00 1012.5
20260905003855 0 0.0 0.0 0.00 0.01 0.00 1012.6
20260905003347 0 0.0 0.0 0.00 0.01 0.00 1012.6
20260905002913 0 0.0 0.0 0.00 0.01 0.00 1012.6
20260905002341 0 0.0 0.0 0.00 0.01 0.00 1012.5
20260905001851 0 0.0 0.0 0.00 0.01 0.00 1012.4
20260905001340 0 0.0 0.0 0.00 0.01 0.00 1012.4
20260905000851 0 0.0 0.0 0.00 0.01 0.00 1012.4
20260905000343 0 0.0 0.0 0.00 0.01 0.00 1012.5
20260904235852 0 0.0 0.0 0.00 0.01 0.00 1012.4
20260904235348 0 0.0 0.0 0.00 0.01 0.00 1012.4
20260904234853 0 0.0 0.0 0.00 0.01 0.00 1012.5
20260904234400 0 0.0 0.0 0.00 0.01 0.00 1012.5
20260904233847 0 0.0 0.0 0.00 0.01 0.00 1012.4
20260904233353 0 0.0 0.0 0.00 0.01 0.00 1012.5
20260904232856 0 0.0 0.0 0.00 0.01 0.00 1012.6
20260904232344 0 0.0 0.0 0.00 0.01 0.00 1012.6
20260904231849 0 0.0 0.0 0.00 0.01 0.00 1012.6
20260904230840 85 0.0 0.0 0.00 0.01 0.00 68 1012.3
20260904230351 85 0.0 0.0 0.00 0.01 0.00 68 1012.3